Wind_Speed
10 11 11 12 13 14 14 14 14 14 15 15 14 14 14 15 15 16 16 16 16 16 14 14 13 13 13 13 13 14 15 14 14 15 15 15 15 14 15 15 16 17 17 17
10 10 11 12 12 13 14 14 14 14 15 15 15 14 14 14 15 16 16 16 15 14 14 14 14 14 14 15 15 14 14 15 15 14 14 14 14 15 15 16 16 16 16 16
10 10 11 12 13 13 13 14 14 14 14 14 15 14 14 14 14 15 15 15 14 13 13 14 14 14 14 14 14 13 14 14 15 14 14 14 14 14 14 14 15 15 15 15
10 11 11 11 12 13 13 13 14 13 13 14 14 14 13 13 14 14 13 12 12 12 12 13 13 13 13 13 12 13 14 14 15 16 15 15 15 13 14 14 15 15 14 14
11 11 11 11 11 12 11 12 12 13 13 14 13 14 13 13 13 13 11 11 11 11 11 11 11 12 12 12 12 12 14 14 15 16 16 15 15 15 14 15 14 15 15 14
11 11 10 10 10 11 10 11 11 12 13 13 12 13 12 12 12 12 11 11 10 10 10 11 12 12 12 11 11 12 13 13 14 15 15 15 15 15 15 15 14 14 14 14
10 10 10 10 10 10 10 10 10 11 11 12 12 12 11 10 11 11 11 11 11 11 11 11 12 12 11 11 11 11 11 12 13 13 13 13 13 13 13 14 14 13 14 14
9 9 10 10 10 10 10 10 9 10 11 10 10 11 10 10 10 10 10 11 10 11 11 11 11 10 11 11 11 11 11 12 12 12 12 13 12 12 12 13 13 13 13 13
10 10 10 10 9 10 9 9 9 10 10 9 9 10 9 9 9 8 9 9 8 9 10 11 11 10 10 10 10 11 11 11 11 12 12 12 11 11 12 12 12 11 12 12
10 10 9 10 10 9 9 10 9 9 9 8 8 9 9 8 8 7 7 6 7 8 9 9 8 9 10 9 9 9 10 11 11 11 11 10 10 10 10 11 11 11 11 11
9 10 10 10 10 10 10 9 9 8 8 8 8 8 7 8 8 7 6 7 8 8 8 8 8 9 9 9 9 9 10 10 10 10 10 9 9 10 10 10 11 11 11 10
10 10 10 10 10 10 10 9 8 8 8 8 8 8 7 8 8 7 7 7 8 7 8 8 8 8 8 8 8 9 10 10 9 9 9 9 9 9 10 10 10 10 10 10
11 11 11 11 10 9 8 8 8 8 8 8 8 8 7 7 7 8 8 6 7 7 7 7 8 8 8 8 8 8 9 9 9 8 8 9 9 9 9 10 10 10 9 10
11 11 11 12 11 10 8 8 7 7 8 8 8 8 7 7 7 7 6 5 6 7 7 7 8 8 8 8 8 8 9 9 9 9 9 9 8 8 9 9 9 9 9 9
10 10 10 10 10 9 8 7 7 7 7 8 7 8 7 7 7 7 6 6 7 7 7 7 7 8 8 9 10 9 10 9 9 8 8 7 8 8 8 8 8 8 8 8
10 11 11 11 10 9 9 8 7 7 7 7 7 7 7 6 6 6 7 7 7 7 7 7 7 8 8 9 10 9 9 9 9 8 7 8 9 9 8 8 8 8 9 9
12 12 11 11 10 10 10 9 9 8 7 7 7 7 7 7 7 6 7 7 7 7 8 8 8 9 9 9 8 9 9 9 8 8 8 8 8 8 8 8 9 9 10 10
13 13 12 12 12 12 11 10 9 9 8 8 8 7 7 7 7 7 8 8 8 8 8 8 9 9 9 9 8 8 9 9 8 8 8 8 8 8 8 9 10 10 10 11
13 13 13 13 13 13 11 10 10 10 9 10 10 9 9 8 8 8 9 9 9 9 9 9 9 9 9 8 8 9 9 9 8 8 8 8 8 8 8 9 9 9 11 11
13 13 14 14 14 13 11 11 11 11 11 12 12 12 11 10 10 10 10 10 10 10 10 10 9 9 9 9 9 9 9 9 9 9 9 8 8 8 9 9 10 11 12 12
14 14 14 14 14 12 11 12 12 12 12 12 12 12 12 12 12 11 11 11 10 10 10 10 9 9 9 9 9 9 9 9 9 9 9 9 9 9 10 11 11 12 12 12
16 16 15 14 14 13 13 13 13 13 13 13 12 12 12 13 13 12 11 11 11 10 10 10 9 8 8 9 9 9 9 9 8 8 9 10 10 11 11 12 12 12 12 13
16 16 16 15 15 15 14 14 14 14 14 14 14 14 14 14 12 12 11 12 11 10 10 9 8 8 8 8 8 9 9 9 8 9 10 10 11 12 12 12 12 12 13 13
16 16 16 16 16 16 16 15 15 15 15 15 15 15 15 14 13 12 11 12 12 9 8 8 7 7 7 8 8 9 9 9 9 10 11 11 12 12 12 12 12 12 13 13
18 19 18 17 17 17 17 16 16 16 16 16 15 15 14 13 13 13 12 12 11 9 9 8 8 8 8 8 9 9 9 10 10 11 11 12 12 12 11 12 12 13 14 14
18 19 18 18 18 18 18 18 17 16 16 16 15 14 13 13 13 13 12 12 12 11 10 9 8 8 9 9 9 9 9 10 11 11 11 11 11 11 11 12 13 13 14 14
Wind_Direction
292 289 286 286 285 285 281 281 281 283 282 280 280 277 275 276 277 279 277 279 282 284 282 281 280 280 284 285 280 277 278 280 278 280 282 283 281 282 283 285 286 284 282 281
297 295 290 287 285 285 285 283 283 284 282 279 279 278 275 275 278 281 279 282 286 284 281 280 280 278 284 285 283 280 277 277 276 277 279 280 282 283 283 287 287 285 283 281
300 297 290 287 286 285 285 283 282 283 281 277 275 274 272 275 279 282 282 284 288 289 291 285 281 282 285 286 282 284 280 278 278 278 280 279 282 283 287 285 287 287 286 285
306 301 296 292 288 286 285 282 279 280 281 279 277 271 272 277 280 283 284 286 290 292 296 290 284 285 289 289 286 284 282 281 282 279 278 278 274 277 285 287 286 287 286 284
314 304 298 295 292 289 288 283 279 279 280 278 279 274 269 276 279 281 280 287 291 291 289 287 286 289 289 290 288 287 285 281 282 283 277 279 277 278 286 287 287 288 285 285
315 309 305 301 295 291 289 286 283 281 279 279 278 276 273 274 279 281 278 281 285 287 288 286 288 289 290 292 290 290 291 290 289 285 280 279 280 283 285 286 288 287 285 286
314 312 307 303 301 297 292 291 288 285 282 282 278 276 275 279 281 283 283 283 283 287 291 291 291 291 296 300 293 290 292 294 294 290 285 281 283 286 289 292 292 290 288 286
313 315 313 310 308 304 300 297 293 293 292 288 280 280 286 286 285 285 284 287 286 286 291 292 296 298 305 306 303 300 298 296 295 295 293 285 284 289 295 298 296 293 293 288
312 316 316 315 317 314 308 305 301 299 297 291 287 291 291 290 287 290 292 287 289 290 291 298 304 306 310 306 304 303 301 300 297 297 295 290 284 288 295 298 296 296 296 292
310 314 321 321 320 319 315 309 309 309 308 301 293 296 304 299 294 293 297 296 301 303 304 306 311 312 315 310 306 306 305 302 298 296 294 290 289 292 297 298 298 298 298 295
312 315 318 318 319 318 316 310 306 307 309 304 303 305 307 308 307 304 301 299 306 312 316 315 312 313 315 313 311 313 310 307 302 300 299 293 294 297 299 297 298 301 302 298
310 313 313 312 314 315 314 309 305 298 299 304 308 313 310 309 312 311 306 305 311 313 317 315 314 318 318 316 315 316 313 311 308 307 308 304 302 301 300 299 302 304 303 299
306 308 307 306 307 310 308 306 305 296 295 298 302 311 313 312 316 318 314 310 314 313 312 314 319 323 324 325 323 319 317 313 313 310 309 311 309 306 305 307 309 311 305 302
305 305 305 306 307 306 303 305 305 299 298 299 302 310 310 313 313 316 315 320 324 317 313 312 317 324 328 331 331 327 322 318 315 313 310 312 314 313 312 314 312 313 309 305
296 298 302 304 300 298 298 296 300 301 300 305 309 313 313 315 312 305 306 314 318 316 314 310 317 323 326 329 331 331 326 320 317 315 314 316 318 316 318 318 317 314 311 308
292 292 293 293 292 292 295 294 297 296 297 303 309 312 312 310 309 303 302 306 311 318 319 317 317 318 322 327 329 330 330 329 326 324 322 322 318 316 317 321 319 318 317 313
291 292 292 292 288 285 286 290 293 292 300 304 305 307 305 304 305 303 304 304 310 315 318 315 312 315 316 321 326 331 331 331 331 333 333 329 325 321 318 316 315 313 313 311
291 290 290 288 286 286 290 288 288 287 291 296 298 299 299 299 300 300 304 304 309 314 314 311 307 313 316 317 320 324 327 330 330 330 332 332 330 328 328 322 318 315 313 313
293 293 292 289 284 283 286 282 283 285 286 289 294 289 292 294 295 298 304 304 303 305 309 309 305 307 312 316 319 322 326 330 329 326 326 326 326 326 326 326 325 324 323 320
289 292 293 291 287 286 285 280 280 283 282 284 287 289 288 288 292 296 299 300 301 300 302 305 304 306 310 313 316 321 325 328 327 325 325 323 323 324 327 330 328 327 326 327
283 286 289 290 288 289 285 281 282 285 287 284 286 290 288 288 291 292 291 294 299 300 301 304 306 307 310 313 316 320 322 323 324 327 327 324 323 324 324 326 327 328 327 328
282 284 287 289 288 286 281 281 280 283 282 282 283 284 282 283 287 286 286 290 296 298 300 304 307 309 311 315 316 318 320 321 324 327 326 324 324 323 322 322 323 325 327 329
280 281 282 285 285 285 284 280 279 280 277 275 275 278 280 281 285 283 284 289 295 296 297 298 303 309 311 313 315 320 322 322 322 323 323 324 323 322 322 322 322 323 326 326
278 278 279 280 281 281 280 279 280 278 275 272 271 271 278 278 278 279 280 284 289 289 293 294 296 299 304 311 315 320 323 324 321 320 321 323 323 323 322 320 320 321 322 323
277 276 277 279 280 279 278 276 277 276 274 271 269 269 272 275 274 274 274 278 282 287 287 287 289 293 300 306 310 317 320 320 320 319 319 321 323 324 322 321 321 321 320 321
274 274 275 277 277 275 274 273 272 272 269 268 268 268 271 272 269 270 271 273 275 279 281 284 285 288 297 301 303 309 315 316 317 319 319 319 321 321 321 321 322 323 324 323
Height
5835 5835 5833 5833 5832 5831 5830 5830 5829 5829 5828 5828 5827 5827 5827 5826 5826 5825 5825 5825 5824 5824 5823 5822 5822 5821 5820 5819 5819 5820 5819 5819 5818 5818 5817 5816 5816 5815 5814 5813 5812 5811 5810 5809
5833 5832 5831 5829 5829 5828 5827 5826 5826 5825 5824 5824 5823 5823 5823 5823 5822 5822 5821 5821 5820 5820 5819 5819 5819 5818 5817 5817 5816 5815 5815 5815 5814 5814 5813 5812 5812 5812 5810 5809 5808 5807 5806 5805
5830 5830 5828 5827 5826 5825 5824 5823 5823 5822 5821 5820 5821 5821 5820 5820 5819 5818 5817 5817 5816 5816 5816 5815 5815 5815 5814 5813 5813 5812 5811 5811 5810 5810 5809 5809 5808 5807 5806 5806 5804 5803 5802 5801
5827 5826 5825 5824 5823 5822 5821 5820 5819 5819 5818 5817 5818 5817 5818 5817 5816 5815 5815 5814 5814 5813 5813 5812 5812 5811 5810 5809 5809 5808 5807 5807 5806 5806 5806 5805 5804 5803 5803 5802 5801 5799 5799 5798
5825 5823 5822 5821 5820 5819 5818 5817 5816 5816 5815 5814 5814 5814 5815 5813 5813 5813 5812 5812 5811 5811 5811 5810 5809 5808 5807 5806 5805 5804 5804 5803 5803 5802 5802 5801 5800 5799 5799 5798 5797 5796 5795 5795
5824 5822 5820 5819 5818 5816 5815 5815 5813 5813 5812 5812 5812 5811 5812 5811 5811 5810 5810 5810 5809 5808 5808 5807 5806 5805 5803 5803 5802 5801 5800 5800 5799 5799 5798 5797 5797 5796 5795 5794 5793 5792 5791 5791
5822 5820 5819 5817 5815 5814 5813 5812 5811 5810 5809 5809 5809 5808 5809 5808 5808 5807 5807 5807 5806 5805 5805 5804 5803 5802 5801 5800 5799 5798 5797 5797 5796 5795 5794 5794 5793 5792 5792 5791 5789 5788 5787 5787
5820 5819 5817 5816 5814 5812 5810 5810 5810 5809 5808 5807 5806 5806 5807 5806 5805 5805 5804 5803 5803 5802 5802 5801 5800 5799 5798 5797 5796 5795 5795 5794 5793 5792 5791 5790 5790 5789 5788 5787 5785 5784 5783 5782
5818 5818 5816 5814 5812 5811 5809 5808 5808 5807 5806 5806 5805 5805 5805 5804 5803 5802 5802 5801 5800 5800 5799 5798 5797 5796 5795 5794 5793 5793 5791 5791 5790 5789 5788 5787 5787 5786 5785 5784 5782 5781 5780 5779
5817 5815 5814 5812 5811 5809 5808 5807 5806 5805 5804 5804 5804 5803 5803 5802 5801 5801 5800 5799 5798 5797 5797 5795 5795 5794 5793 5792 5791 5790 5789 5788 5787 5786 5785 5784 5784 5783 5782 5781 5779 5778 5777 5776
5815 5814 5813 5811 5809 5808 5807 5806 5805 5804 5803 5803 5802 5805 5802 5801 5800 5799 5798 5798 5797 5796 5795 5794 5793 5792 5791 5790 5789 5788 5787 5785 5784 5783 5782 5782 5781 5780 5779 5778 5777 5776 5774 5774
5813 5813 5811 5810 5808 5807 5805 5805 5804 5804 5803 5802 5801 5805 5801 5800 5798 5797 5797 5796 5795 5794 5794 5793 5792 5791 5790 5788 5787 5786 5785 5783 5782 5781 5780 5780 5779 5777 5776 5775 5774 5773 5772 5771
5812 5811 5809 5808 5809 5807 5804 5803 5803 5802 5802 5801 5801 5803 5800 5798 5797 5796 5795 5795 5794 5793 5793 5792 5791 5790 5788 5787 5786 5784 5783 5782 5781 5779 5778 5778 5776 5775 5774 5773 5772 5771 5770 5769
5809 5808 5808 5807 5806 5804 5803 5802 5802 5801 5800 5799 5799 5799 5798 5797 5796 5795 5795 5794 5793 5792 5791 5791 5789 5788 5787 5786 5784 5783 5782 5781 5779 5778 5776 5776 5775 5773 5772 5771 5770 5769 5768 5767
5807 5807 5805 5805 5803 5803 5802 5802 5801 5800 5799 5798 5798 5797 5797 5796 5795 5794 5793 5793 5792 5791 5790 5789 5788 5787 5786 5785 5783 5782 5780 5779 5777 5776 5775 5774 5773 5772 5770 5770 5769 5767 5766 5765
5805 5805 5804 5804 5802 5802 5801 5801 5800 5799 5798 5797 5796 5796 5795 5794 5794 5793 5792 5792 5791 5790 5789 5788 5787 5786 5785 5783 5782 5780 5779 5777 5776 5774 5773 5772 5771 5770 5769 5768 5767 5766 5765 5764
5803 5803 5803 5802 5801 5800 5800 5800 5798 5798 5797 5796 5795 5795 5794 5793 5792 5792 5791 5790 5789 5789 5788 5787 5786 5785 5783 5782 5781 5779 5778 5776 5775 5773 5772 5771 5770 5769 5768 5767 5766 5764 5763 5762
5801 5800 5800 5799 5800 5798 5800 5797 5797 5796 5795 5794 5794 5793 5792 5792 5791 5790 5790 5789 5788 5787 5786 5785 5784 5783 5782 5781 5779 5778 5776 5775 5773 5772 5771 5770 5768 5767 5766 5765 5764 5763 5761 5760
5799 5798 5797 5797 5796 5796 5796 5796 5795 5794 5794 5793 5792 5791 5791 5790 5789 5789 5788 5788 5787 5786 5785 5784 5783 5782 5781 5779 5778 5777 5775 5773 5772 5771 5769 5768 5767 5766 5765 5764 5762 5761 5759 5758
5796 5795 5795 5794 5793 5793 5795 5793 5792 5793 5791 5791 5790 5789 5788 5788 5788 5788 5787 5786 5785 5784 5783 5782 5781 5780 5779 5778 5776 5775 5774 5772 5771 5769 5768 5766 5765 5764 5763 5762 5760 5759 5757 5755
5793 5793 5792 5791 5790 5790 5791 5790 5790 5790 5790 5789 5787 5787 5786 5785 5785 5785 5784 5783 5783 5782 5781 5780 5779 5778 5777 5776 5775 5774 5772 5771 5769 5768 5766 5765 5764 5762 5761 5760 5758 5756 5755 5753
5789 5789 5788 5788 5787 5789 5787 5786 5787 5786 5785 5785 5784 5784 5783 5783 5782 5782 5782 5781 5781 5780 5779 5778 5777 5776 5775 5774 5773 5772 5771 5769 5768 5766 5765 5763 5762 5760 5759 5758 5756 5754 5753 5751
5785 5785 5784 5785 5786 5784 5783 5782 5782 5782 5781 5781 5781 5781 5780 5780 5780 5780 5779 5779 5778 5778 5777 5776 5775 5774 5773 5772 5772 5770 5769 5768 5766 5765 5763 5762 5760 5758 5757 5755 5754 5752 5750 5749
5781 5780 5780 5780 5780 5779 5779 5778 5778 5777 5777 5777 5777 5777 5777 5777 5777 5777 5777 5776 5776 5775 5775 5774 5773 5773 5772 5771 5770 5769 5768 5766 5765 5763 5762 5760 5758 5756 5755 5753 5751 5750 5748 5746
5777 5776 5775 5775 5775 5774 5774 5774 5773 5773 5772 5772 5772 5773 5773 5773 5773 5774 5774 5773 5773 5772 5772 5772 5771 5771 5770 5769 5768 5767 5766 5764 5763 5761 5759 5758 5756 5754 5752 5751 5749 5747 5745 5743
5771 5771 5770 5770 5770 5769 5769 5769 5768 5768 5768 5768 5768 5768 5769 5769 5770 5770 5770 5770 5770 5769 5769 5769 5769 5769 5768 5767 5766 5765 5764 5762 5761 5759 5757 5756 5754 5752 5750 5749 5747 5745 5742 5740